SCP
0 0 0 0 0 0 0 0 0 0 0 0 0 0 0 0 0 0 0 0 0 0 0 0 0 0 0 0 0 0 0 0 0 0 0 0 0 0 0 0 0 0 0 0
0 0 0 0 0 0 0 0 0 0 0 0 0 0 0 0 0 0 0 0 0 0 0 0 0 0 0 0 0 0 0 0 0 0 0 0 0 0 0 0 0 0 0 0
0 0 0 0 0 0 0 0 0 0 0 0 0 0 0 0 0 0 0 0 0 0 0 0 0 0 0 0 0 0 0 0 0 0 0 0 0 0 0 0 0 0 0 0
0 0 0 0 0 0 0 0 0 0 0 0 0 0 0 0 0 0 0 0 0 0 0 0 0 0 0 0 0 0 0 0 0 0 0 0 0 0 0 0 0 0 0 0
0 0 0 0 0 0 0 0 0 0 0 0 0 0 0 0 0 0 0 0 0 0 0 0 0 0 0 0 0 0 0 0 0 0 0 0 0 0 0 0 0 0 0 0
0 0 0 0 0 0 0 0 0 0 0 0 0 0 0 0 0 0 0 0 0 0 0 0 0 0 0 0 0 0 0 0 0 0 0 0 0 0 0 0 0 0 0 0
0 0 0 0 0 0 0 0 0 0 0 0 0 0 0 0 0 0 0 0 0 0 0 0 0 0 0 0 0 0 0 0 0 0 0 0 0 0 0 0 0 0 0 0
0 0 0 0 0 0 0 0 0 0 0 0 0 0 0 0 0 0 0 0 0 0 0 0 0 0 0 0 0 0 0 0 0 0 0 0 0 0 0 0 0 0 0 0
0 0 0 0 0 0 0 0 0 0 0 0 0 0 0 0 0 0 0 0 0 0 0 0 0 0 0 0 0 0 0 0 0 0 0 0 0 0 0 0 0 0 0 0
0 0 0 0 0 0 0 0 0 0 0 0 0 0 0 0 0 0 0 0 0 0 0 0 0 0 0 0 0 0 0 0 0 0 0 0 0 0 0 0 0 0 0 0
0 0 0 0 0 0 0 0 0 0 0 0 0 0 0 0 0 0 0 0 0 0 0 0 0 0 0 0 0 0 0 0 0 0 0 0 0 0 0 0 0 0 0 0
0 0 0 0 0 0 0 0 0 0 0 0 0 0 0 0 0 0 0 0 0 0 0 0 0 0 0 0 0 0 0 0 0 0 0 0 0 0 0 0 0 0 0 0
0 0 0 0 0 0 0 0 0 0 0 0 0 0 0 0 0 0 0 0 0 0 0 0 0 0 0 0 0 0 0 0 0 0 0 0 0 0 0 0 0 0 0 0
0 0 0 0 0 0 0 0 0 0 0 0 0 0 0 0 0 0 0 0 0 0 0 0 0 0 0 0 0 0 0 0 0 0 0 0 0 0 0 0 0 0 0 0
0 0 0 0 0 0 0 0 0 0 0 0 0 0 0 0 0 0 0 0 0 0 0 0 0 0 0 0 0 0 0 0 0 0 0 0 0 0 0 0 0 0 0 0
0 0 0 0 0 0 0 0 0 0 0 0 0 0 0 0 0 0 0 0 0 0 0 0 0 0 0 0 0 0 0 0 0 0 0 0 0 0 0 0 0 0 0 0
0 0 0 0 0 0 0 0 0 0 0 0 0 0 0 0 0 0 0 0 0 0 0 0 0 0 0 0 0 0 0 0 0 0 0 0 0 0 0 0 0 0 0 0
0 0 0 0 0 0 0 0 0 0 0 0 0 0 0 0 0 0 0 0 0 0 0 0 0 0 0 0 0 0 0 0 0 0 0 0 0 0 0 0 0 0 0 0
0 0 0 0 0 0 0 0 0 0 0 0 0 0 0 0 0 0 0 0 0 0 0 0 0 0 0 0 0 0 0 0 0 0 0 0 0 0 0 0 0 0 0 0
0 0 0 0 0 0 0 0 0 0 0 0 0 0 0 0 0 0 0 0 0 0 0 0 0 0 0 0 0 0 0 0 0 0 0 0 0 0 0 0 0 0 0 0
0 0 0 0 0 0 0 0 0 0 0 0 0 0 0 0 0 0 0 0 0 0 0 0 0 0 0 0 0 0 0 0 0 0 0 0 0 0 0 0 0 0 0 0
0 0 0 0 0 0 0 0 0 0 0 0 0 0 0 0 0 0 0 0 0 0 0 0 0 0 0 0 0 0 0 0 0 0 0 0 0 0 0 0 0 0 0 0
0 0 0 0 0 0 0 0 0 0 0 0 0 0 0 0 0 0 0 0 0 0 0 0 0 0 0 0 0 0 0 0 0 0 0 0 0 0 0 0 0 0 0 0
0 0 0 0 0 0 0 0 0 0 0 0 0 0 0 0 0 0 0 0 0 0 0 0 0 0 0 0 0 0 0 0 0 0 0 0 0 0 0 0 0 0 0 0
0 0 0 0 0 0 0 0 0 0 0 0 0 0 0 0 0 0 0 0 0 0 0 0 0 0 0 0 0 0 0 0 0 0 0 0 0 0 0 0 0 0 0 0
0 0 0 0 0 0 0 0 0 0 0 0 0 0 0 0 0 0 0 0 0 0 0 0 0 0 0 0 0 0 0 0 0 0 0 0 0 0 0 0 0 0 0 0
0 0 0 0 0 0 0 0 0 0 0 0 0 0 0 0 0 0 0 0 0 0 0 0 0 0 0 0 0 0 0 -0 0 0 0 0 0 0 0 0 0 0 0 0
Wind_Speed
5 4 3 6 8 9 11 10 10 10 10 14 10 8 7 6 5 5 6 6 7 6 6 5 4 4 4 3 3 3 3 3 3 2 2 1 1 1 1 1 1 1 1 1
4 3 4 8 11 12 12 10 11 11 16 14 10 6 6 7 6 7 8 8 7 7 6 6 6 5 4 4 4 3 3 3 2 2 2 2 2 1 1 1 1 1 1 1
4 3 4 11 12 14 10 11 11 15 15 7 6 7 8 8 8 9 9 8 8 8 8 7 7 7 6 5 4 4 4 3 2 2 2 2 2 2 2 2 1 1 1 1
1 2 8 10 3 9 10 11 14 12 11 9 9 7 7 8 9 10 8 8 8 7 6 6 5 5 5 4 4 4 3 3 3 3 2 2 2 2 2 2 2 2 1 1
3 4 11 10 5 8 9 11 13 17 14 10 5 4 8 8 9 10 9 8 7 7 6 5 6 6 5 5 4 4 4 4 4 4 3 3 3 3 2 2 2 2 1 1
4 5 10 8 4 6 4 9 9 13 14 9 4 4 8 6 6 6 6 5 5 4 4 5 5 6 6 6 5 6 6 5 4 4 4 4 4 3 2 2 2 1 1 1
7 8 14 8 4 7 6 10 4 9 11 10 11 11 6 3 4 4 4 4 4 5 5 6 5 6 6 6 7 6 4 4 3 4 4 4 3 2 2 2 1 1 1 2
7 8 14 6 9 11 11 4 3 5 7 9 10 8 5 5 5 5 4 4 5 5 4 4 5 6 6 6 5 4 4 4 3 3 3 3 3 2 2 2 2 2 2 2
14 13 5 9 11 9 4 5 5 5 6 7 7 7 6 5 5 5 5 5 4 5 4 3 4 6 7 5 4 4 4 4 4 3 3 3 3 3 2 2 2 2 2 3
8 12 9 9 9 8 7 8 7 5 5 6 7 7 7 6 5 5 5 5 4 5 5 4 4 4 4 4 4 5 5 4 3 3 3 3 3 3 3 3 3 3 3 3
10 11 8 10 13 14 11 9 8 7 6 7 7 7 7 6 6 6 5 4 4 6 6 5 4 3 3 4 5 5 4 4 3 3 3 3 3 3 4 4 4 4 4 4
13 10 8 9 7 8 9 11 11 9 8 7 8 9 7 6 5 5 5 4 4 5 5 4 4 3 3 4 5 5 4 4 3 3 3 3 2 2 4 5 6 7 6 5
12 8 10 10 7 6 8 10 9 9 9 8 6 6 6 5 4 4 4 4 6 6 5 4 4 3 3 3 4 5 5 4 3 3 3 3 3 3 2 3 5 6 7 8
10 6 9 10 10 8 7 7 6 5 6 5 4 3 3 3 2 4 5 5 4 4 4 4 4 4 3 3 4 4 4 4 3 3 3 3 3 3 2 2 3 3 5 7
13 12 13 9 6 5 4 3 4 5 4 4 3 3 4 4 5 5 3 2 3 3 3 4 4 3 2 4 4 4 4 3 3 3 2 2 2 2 2 3 3 3 3 4
9 9 10 10 10 7 4 4 6 7 5 4 3 4 4 4 3 2 2 4 4 5 5 4 4 3 3 4 4 3 3 4 3 3 2 2 2 3 3 3 3 4 4 4
7 9 8 8 9 7 6 6 6 6 4 4 5 3 2 2 2 2 2 2 2 3 3 3 3 2 3 4 4 3 2 3 4 3 3 3 3 4 3 3 4 4 5 5
8 9 7 6 6 6 5 5 4 4 4 4 3 2 3 4 5 4 3 2 1 1 1 2 2 2 3 4 3 3 3 3 3 3 3 3 3 3 3 4 5 5 4 4
5 6 5 4 4 4 4 4 3 3 3 2 3 4 4 4 4 3 3 4 3 3 3 2 2 3 3 3 3 3 3 3 3 3 3 3 3 3 4 4 4 5 4 4
3 3 2 2 1 1 2 2 2 2 1 2 3 3 2 2 2 3 3 3 3 2 1 2 2 2 3 3 3 2 3 3 3 3 3 3 4 4 4 4 4 4 4 4
2 1 1 1 0 0 0 1 1 1 1 2 3 3 3 2 2 3 3 3 2 0 1 2 2 2 2 2 3 3 3 3 3 3 3 3 3 4 4 4 4 4 4 4
1 1 0 0 1 1 1 0 1 1 2 2 2 2 2 2 2 2 2 2 1 1 1 1 1 1 2 3 2 3 3 3 3 3 3 3 3 3 4 4 4 4 4 4
1 1 0 0 1 1 2 2 1 2 2 2 2 2 2 2 2 2 2 1 1 1 1 1 2 2 2 2 2 3 3 3 3 3 3 3 3 3 3 4 4 3 4 4
2 2 1 1 2 2 2 2 1 1 1 1 1 1 1 1 1 1 1 1 1 2 1 2 2 2 2 2 2 3 3 3 3 3 3 3 3 3 3 4 4 4 4 4
2 2 2 2 2 1 0 1 2 2 2 1 1 1 0 0 1 1 1 1 1 1 1 1 2 2 2 2 2 3 3 3 3 3 3 3 3 3 4 4 4 4 4 4
2 1 1 1 0 0 0 0 1 1 1 1 1 1 1 1 1 1 0 1 1 1 0 1 1 2 1 2 2 3 2 2 3 3 3 3 4 4 4 4 5 4 4 5
2 2 1 1 2 1 1 1 0 0 0 0 1 1 1 1 1 1 1 1 0 0 0 0 1 1 1 2 2 2 2 2 3 3 3 3 3 4 4 5 4 4 4 5
Wind_Direction
258 275 250 236 226 204 206 207 214 237 242 258 256 246 247 247 245 239 237 229 222 219 217 213 209 207 203 200 193 179 175 187 206 200 184 173 170 171 150 144 163 167 150 159
285 277 264 262 244 224 227 226 236 256 266 258 257 251 249 243 234 235 236 229 226 220 213 210 206 202 197 197 190 172 182 200 197 178 174 175 177 163 150 164 168 150 163 169
265 303 333 270 231 204 211 213 202 224 241 255 253 241 235 232 230 231 230 227 222 216 211 208 204 195 195 194 176 171 185 192 186 180 182 187 169 155 176 193 179 176 187 182
244 32 244 245 192 188 209 229 215 231 244 242 245 257 253 231 224 230 226 222 219 214 210 205 197 189 184 174 172 177 184 190 190 182 189 182 169 182 200 200 196 205 205 204
163 240 273 282 223 179 195 253 220 224 239 246 257 303 279 242 223 224 221 218 215 208 200 191 189 183 171 175 178 182 191 196 196 186 186 181 191 205 205 198 205 213 196 201
169 205 244 248 191 169 147 272 233 207 224 224 178 240 259 236 214 221 222 216 206 193 184 186 191 173 173 185 187 200 203 199 188 182 184 190 200 202 198 196 206 201 219 229
197 227 258 248 165 135 178 243 226 194 207 195 201 221 241 222 213 209 208 210 195 183 188 196 183 170 182 190 205 207 191 180 179 185 187 190 188 183 178 179 181 210 242 261
177 213 250 201 151 186 218 245 209 202 204 205 224 238 239 229 223 215 212 205 189 187 199 194 178 175 190 206 204 175 167 173 181 184 183 173 172 174 169 173 190 221 246 266
197 216 236 179 201 220 220 231 232 222 222 212 226 238 237 234 227 223 219 210 193 189 192 197 188 183 196 205 173 162 166 180 181 174 176 175 177 180 178 183 199 225 234 255
245 257 248 235 248 256 241 241 249 239 233 213 228 239 240 240 231 224 218 211 194 180 193 208 200 194 197 180 167 166 177 183 177 173 178 182 190 187 189 196 206 221 233 246
247 265 284 260 241 245 249 253 260 255 239 228 228 239 233 234 232 222 217 206 188 191 202 208 194 194 186 174 168 174 179 181 181 182 184 190 200 206 206 213 210 214 223 225
233 229 220 247 241 229 232 241 242 243 250 241 225 234 234 235 231 217 210 198 192 195 197 197 184 190 190 179 172 170 177 184 186 184 187 190 200 241 242 235 243 245 248 244
236 237 233 255 261 234 232 241 240 231 235 244 238 228 226 232 228 212 205 197 199 197 193 186 182 191 195 183 174 176 182 184 182 185 189 193 199 213 252 269 254 254 257 259
239 241 257 255 255 250 242 247 244 244 244 240 237 225 215 219 212 201 209 206 192 179 180 178 182 204 198 176 174 180 179 181 182 191 194 198 204 213 221 241 267 273 269 268
236 228 238 257 263 256 248 242 239 247 251 254 239 218 204 201 208 216 211 172 154 164 181 179 191 216 186 171 176 182 181 186 187 190 194 198 202 209 220 234 248 267 285 284
243 241 244 253 256 255 248 234 232 242 241 241 234 227 217 209 204 192 169 163 170 192 197 190 205 206 179 177 180 185 194 192 184 186 192 198 203 212 226 237 248 255 259 265
237 244 241 248 250 249 239 232 230 236 230 225 229 222 192 171 172 190 196 193 198 202 190 187 204 191 178 182 183 190 194 193 187 190 202 207 211 218 226 233 244 252 256 259
235 243 233 231 236 236 241 239 236 232 225 228 213 180 178 184 198 204 198 170 161 196 213 215 201 180 183 186 182 182 188 196 199 207 211 215 224 228 230 238 246 254 265 269
250 255 255 245 235 221 228 231 233 233 227 191 176 191 201 207 205 193 163 154 175 210 242 238 200 173 187 193 177 179 187 196 207 217 219 223 228 230 235 244 251 254 258 260
267 271 263 263 260 217 226 234 218 217 207 174 167 172 191 206 185 169 161 183 210 229 226 224 199 186 194 197 183 188 194 200 208 216 219 223 231 236 237 243 249 256 257 257
270 272 233 202 246 357 262 214 175 188 175 158 166 182 194 196 171 160 166 213 257 275 178 195 199 201 193 192 187 189 194 201 208 214 218 225 233 239 242 245 248 253 256 260
295 298 278 224 130 44 8 62 127 136 125 133 148 154 153 164 170 175 195 216 217 189 182 196 211 213 203 186 186 190 198 204 210 215 221 225 230 238 245 249 252 256 257 259
348 31 58 119 150 96 48 54 84 121 130 139 151 167 179 192 187 190 228 236 185 195 187 209 223 206 195 181 185 194 203 209 213 215 221 227 231 237 244 250 254 258 261 265
36 52 45 51 77 76 47 15 44 72 91 100 121 163 165 173 235 273 290 203 202 195 199 214 205 190 180 204 201 202 210 217 222 223 224 229 232 236 240 246 253 257 259 263
39 55 63 76 85 69 11 32 60 58 60 50 29 21 7 230 217 229 220 203 190 173 199 209 199 190 190 216 214 215 217 220 223 223 225 231 236 239 242 245 250 256 259 261
29 33 35 45 39 18 357 49 74 63 62 24 349 354 358 7 39 75 132 162 161 180 184 186 190 193 215 231 229 226 225 228 230 230 232 236 241 243 248 251 253 255 259 262
38 35 34 29 18 7 0 3 14 322 283 242 308 328 356 14 36 55 73 90 100 98 34 236 222 220 226 241 245 237 232 231 234 237 237 240 243 246 250 253 257 260 262 265